Location: Unspecified
(22.6800°N, 112.2000°E)
Time: 21:50:22
(UTC+08:00)

Transit 4A - Pass Details

Date: 10 August 2021
Orbit: 871 x 974 km, 66.8° (Epoch: 21 September)

Event Time Altitude Azimuth Distance (km) Brightness Sun altitude
Exits shadow 21:40:18 37° 11° (N) 1,346 8.8 -32.5°
Drops below altitude 10° 21:43:41 10° 19° (NNE) 2,524 10.3 -33.1°
Sets 21:46:10 0° 21° (NNE) 3,458 11.1 -33.5°
